Location: Baumgartsau
(48.4586°N, 14.0864°E)
Time: 18:50:27
(UTC+00:00)

Cosmos 2322 Rocket - Pass Details

Date: 09 April 2020
Orbit: 834 x 849 km, 71.0° (Epoch: 04 June)

Event Time Altitude Azimuth Distance (km) Brightness Sun altitude
Rises 19:50:41 0° 336° (NNW) 3,408 6.4 -19.3°
Reaches altitude 10° 19:54:46 10° 4° (N) 2,466 5.1 -19.8°
Maximum altitude 19:57:12 13° 30° (NNE) 2,272 4.5 -20.1°
Drops below altitude 10° 19:59:38 10° 56° (NE) 2,458 4.5 -20.4°
Enters shadow 20:00:34 - 64° (ENE) 2,621 4.5 -20.6°
